Location: Newark
(48.1500°N, 2.9667°W)
Time: 07:14:31
(UTC+00:00)

Altair - Pass Details

Date: 26 January 2020
Orbit: 1502 x 1682 km, 47.2° (Epoch: 17 February)

Event Time Altitude Azimuth Distance (km) Brightness Sun altitude
Rises 11:27:44 0° 268° (W) 4,918 10.0 21.9°
Reaches altitude 10° 11:30:52 10° 269° (W) 3,939 9.6 22.0°
Maximum altitude 11:41:05 86° 182° (S) 1,688 8.2 22.4°
Drops below altitude 10° 11:51:12 10° 95° (E) 3,907 9.9 22.7°
Sets 11:54:19 0° 95° (E) 4,876 10.3 22.7°
